星链-37575(STARLINK-37575)

导读

STARLINK-37575(NORAD编号69454)是美国SpaceX公司星链低轨互联网星座的成员卫星,采用猎鹰9号火箭发射入轨。作为星链第二代组网卫星,其设计寿命5年以上,搭载激光星间链路、相控阵通信载荷,可提供低延迟高速互联网接入服务,支持Ku/Ka频段通信,单链路带宽可达100Gbps。该卫星运行于近地轨道,具备自动轨道保持、自主碰撞规避能力,截至2026年6月处于稳定在轨运行状态,为全球偏远地区及航海、航空等特殊场景提供通信支撑。

基本信息
目录编号:
69454
目录名称:
STARLINK-37575
国际标识:
2026-127M
轨道中心:
EARTH
卫星名称:
星链-37575
卫星全名:
星链-37575(STARLINK-37575)
卫星状态:
在轨 (已飞行88 天)
发射日期:
2026-06-08 UTC
国别 :
美国 (US)
星等 :
--
轨道信息
数据来源 国际轨道数据
星历时间: 2026-09-03T17:43:12+0800
22小时前
查看轨道信息
半长轴: 6840.765km
偏心率: 0.0000371
轨道倾角: 53.158°
近地点辐角 51.545°
升交点赤经 245.916°
平近点角 308.558°
近地点: 462.374km
远地点: 462.882km
周期: 93.846分钟
每日圈数: 15.344256
详细信息
固有亮度:
5
最大亮度:
2.5
卫星平台:
Starlink V1.0
覆盖范围:
全球
运营商:
太空探索技术公司
运营商所在国:
美国
制造商(研发单位):
太空探索技术公司
制造商所在国:
美国
使用方式:
暂无
卫星简介
Starlink 计划是 SpaceX 推出的全球卫星互联网项目,通过发射低轨道卫星,为全球尤其是偏远地区提供高速、低延迟的互联网服务。自 2019 年起,Starlink 已部署数千颗卫星,旨在缩小全球数字鸿沟,推动互联网普及。该项目还为军事、航空等行业提供通信支持,带来广泛经济效益。
2D轨道图
3D轨道图
轨道高度分析图
轨道倾角分析图
轨道综合分析图
查看轨道综合分析图
交会数据列表
事件ID 空间交会对象 最接近时刻(TCA) 交会距离 交会风险概率(CRP) 交会风险指数(CRI) 操作
CDM_260904-074506-809806-945421
2026-09-04T
07:45:48+0000
0.279 km
中距离
4.71212E-4 高风险 0.88
CDM_260904-162106-809806-945421
2026-09-04T
16:21:34+0000
0.539 km
远距离
1.334341E-4 高风险 0.78